{"data":{"norad_id":59842,"epoch":"2026-09-21T05:58:18.685632Z","epoch_age_seconds":109771,"freshness":"FRESH","line1":"1 59842U 24097H   26264.24882738  .00000642  00000+0  32850-4 0  9995","line2":"2 59842  43.0010 250.0671 0001217 274.2008  85.8704 15.27579238131829","mean_motion":15.27579238,"eccentricity":0.0001217,"inclination_deg":43.001,"raan_deg":250.0671,"arg_perigee_deg":274.2008,"mean_anomaly_deg":85.8704,"bstar":3.285e-5,"rev_number":13182,"period_min":94.266795736589,"perigee_km":482.21637111716,"apogee_km":483.8863843683,"semimajor_km":6861.1883777427,"source":"CELESTRAK","updated_at":"2026-09-22T09:00:49.077125Z"}}